Regional Weather Roundup
Issued by NWS

Home | Current Version | Previous Version | Graphics & Text | Print | Product List | Glossary On
Versions: 1 2 3 4 5 6 7 8 9 10 11 12 13 14 15 16 17 18 19 20 21 22 23 24 25 26 27 28 29 30 31 32 33 34 35 36 37 38 39 40 41 42 43 44 45 46 47 48 49 50
919
ASUS44 KLIX 150001
RWRLA
LOUISIANA WEATHER ROUNDUP
NATIONAL WEATHER SERVICE NEW ORLEANS LA
700 PM CDT SUN SEP 14 2014

NOTE: "FAIR" INDICATES FEW OR NO CLOUDS BELOW 12,000 FEET WITH NO
      SIGNIFICANT WEATHER AND/OR OBSTRUCTIONS TO VISIBILITY.
      SKY/WX - SKY CONDITION AND SIGNIFICANT WEATHER.
      TMP - AIR TEMPERATURE.    DP   - DEWPOINT TEMPERATURE.
      RH  - RELATIVE HUMIDITY.  PRES - PRESSURE.
      HX  - HEAT INDEX.         WCI  - WIND CHILL INDEX.

*  THESE STATIONS ARE NOT NWS OR FAA STATIONS AND ARE NOT UNDER
   NWS QUALITY CONTROL.

LAZ040-048-061>063-065-066-069-150100-
SOUTHEAST LOUISIANA

CITY           SKY/WX    TMP DP  RH WIND       PRES   REMARKS
N.O. AUDUBON     N/A     87  75  67 MISG        N/A  HX  97
6HR MIN TEMP:  87; 6HR MAX TEMP:  91;

N.O. INTL ARPT PTCLDY    86  72  62 E7        30.04S
6HR MIN TEMP:  84; 6HR MAX TEMP:  90;

N.O. LAKEFRONT CLEAR     85  74  69 E7        30.05R
6HR MIN TEMP:  83; 6HR MAX TEMP:  88;

N.O. DOWNTOWN* FAIR      86  72  62 E5        30.05R
6HR MIN TEMP:  82; 6HR MAX TEMP:  90;

SLIDELL        CLEAR     85  74  69 S5        30.05R
6HR MIN TEMP:  85; 6HR MAX TEMP:  91;

BATON ROUGE    CLEAR     82  72  71 MISG      30.06R
6HR MIN TEMP:  82; 6HR MAX TEMP:  88;

BOOTHVILLE     MOCLDY    84  76  76 E6        30.05R
6HR MIN TEMP:  76; 6HR MAX TEMP:  86; 6HR PCP:  0.14;

BELLE CHASSE   CLEAR     84  73  69 E5        30.04R
6HR MIN TEMP:  84; 6HR MAX TEMP:  89;

BOGALUSA*      FAIR      84  73  71 N3        30.07S
6HR MIN TEMP:  84; 6HR MAX TEMP:  91;

GALLIANO*      NOT AVBL
NEW ROADS*     FAIR      78  71  80 N7        30.07S
6HR MIN TEMP:  76; 6HR MAX TEMP:  82;

GONZALES*      FAIR      83  79  88 CALM      30.05R
6HR MIN TEMP:  82; 6HR MAX TEMP:  89;

HAMMOND*       NOT AVBL
HOUMA*         NOT AVBL
PORT FOURCHON* CLEAR     84  75  74 E13       30.06S

$$

LAZ041-044-053-054-150100-
SOUTHWEST LOUISIANA

CITY           SKY/WX    TMP DP  RH WIND       PRES   REMARKS
LAKE CHARLES   CLEAR     77  70  79 NE9       30.07S
6HR MIN TEMP:  74; 6HR MAX TEMP:  81;

LAFAYETTE      CLEAR     79  72  79 N9        30.06S
6HR MIN TEMP:  76; 6HR MAX TEMP:  84;

PATTERSON      CLEAR     82  75  78 N6        30.07R
6HR MIN TEMP:  82; 6HR MAX TEMP:  88;

SALT POINT       N/A     86  76  71 CALM      30.03R HX  96
6HR MIN TEMP:  83; 6HR MAX TEMP:  90;

NEW IBERIA     CLEAR     81  73  76 N9        30.06R
6HR MIN TEMP:  79; 6HR MAX TEMP:  85;

CHENAULT AIRPK PTCLDY    75  68  78 NE7       30.09

$$

LAZ027-028-150100-
CENTRAL LOUISIANA

CITY           SKY/WX    TMP DP  RH WIND       PRES   REMARKS
FORT POLK      CLEAR     74  68  81 N5        30.10S
6HR MIN TEMP:  72; 6HR MAX TEMP:  78;

ALEXANDRIA INT CLEAR     75  68  78 N3        30.09S
6HR MIN TEMP:  75; 6HR MAX TEMP:  80;

ALEXANDRIA     CLEAR     78  69  73 N3        30.10S
6HR MIN TEMP:  74; 6HR MAX TEMP:  82;


$$

LAZ001-002-150100-
NORTHWEST LOUISIANA

CITY           SKY/WX    TMP DP  RH WIND       PRES   REMARKS
SHREVEPORT     PTCLDY    81  64  56 E7        30.10S
6HR MIN TEMP:  77; 6HR MAX TEMP:  85;

BARKSDALE AFB  CLEAR     80  65  59 E6        30.11S
6HR MIN TEMP:  79; 6HR MAX TEMP:  85;

DTN SHREVEPORT CLEAR     80  65  59 NE3       30.10S
6HR MIN TEMP:  77; 6HR MAX TEMP:  84;


$$

LAZ014-016-150100-
NORTHEAST LOUISIANA

CITY           SKY/WX    TMP DP  RH WIND       PRES   REMARKS
MONROE         PTCLDY    77  66  68 N3        30.12F
6HR MIN TEMP:  70; 6HR MAX TEMP:  80;

TALLULAH       CLEAR     79  68  69 NE5       30.10S
6HR MIN TEMP:  78; 6HR MAX TEMP:  85;


$$




USA.gov is the U.S. government's official web portal to all federal, state and local government web resources and services.